Location: Goettingen
(51.5300°N, 9.9433°E)
Time: 04:41:29
(UTC+01:00)

ISS - Pass Details

Date: 29 November 2021
Orbit: 417 x 423 km, 51.6° (Epoch: 29 November)

Event Time Altitude Azimuth Distance (km) Brightness Sun altitude
Rises 17:03:07 0° 256° (WSW) 2,375 2.1 -7.2°
Reaches altitude 10° 17:05:13 10° 256° (WSW) 1,511 0.7 -7.5°
Maximum altitude 17:08:37 82° 168° (SSE) 433 -3.7 -7.9°
Enters shadow 17:11:56 11° 82° (E) 1,477 -1.6 -8.4°
